Location: Biharia
(46.4333°N, 22.8000°E)
Time: 22:57:36
(UTC+00:00)

COSMOS 2251 DEB - Visible Passes

Search period start: 10 August 2022 00:00
Search period end: 20 August 2022 00:00
Orbit: 557 x 896 km, 74.0° (Epoch: 10 August)

Date Brightness Start Highest point End Pass type
(mag) Time Alt. Az. Time Alt. Az. Time Alt. Az.
10 Aug ? 01:40:54 10° SE 01:43:24 15° E 01:45:48 10° ENE visible
11 Aug ? 02:30:08 10° S 02:34:35 59° ESE 02:38:44 10° NNE visible
12 Aug ? 01:41:32 10° SSE 01:45:11 25° ESE 01:48:39 10° NE visible
13 Aug ? 00:55:16 10° ESE 00:55:56 10° E 00:56:35 10° E visible
13 Aug ? 02:32:01 10° SSW 02:36:28 79° WNW 02:40:39 10° NNE visible
14 Aug ? 01:43:07 12° S 01:46:54 42° ESE 01:50:52 10° NE visible
15 Aug ? 00:54:50 11° SE 00:57:29 18° E 01:00:21 10° ENE visible
15 Aug ? 02:34:15 11° SW 02:38:18 44° WNW 02:42:17 10° N visible
16 Aug ? 01:45:52 22° SSW 01:48:35 76° ESE 01:52:43 10° NNE visible
17 Aug ? 00:57:26 23° SE 00:58:59 30° ESE 01:02:39 10° NE visible
17 Aug ? 02:36:49 12° WSW 02:40:05 27° WNW 02:43:37 10° N visible
18 Aug ? 00:08:54 12° ESE 00:09:34 13° E 00:11:27 10° ENE visible
18 Aug ? 01:48:18 30° SW 01:50:12 61° WNW 01:54:16 10° NNE visible
19 Aug ? 00:59:41 46° SE 01:00:27 53° ESE 01:04:28 10° NNE visible
19 Aug ? 02:39:08 10° W 02:41:52 17° NW 02:44:34 10° NNW visible
